Regional Weather Roundup
Issued by NWS

Home | Current Version | Previous Version | Graphics & Text | Print | Product List | Glossary On
Versions: 1 2 3 4 5 6 7 8 9 10 11 12 13 14 15 16 17 18 19 20 21 22 23 24 25 26 27 28 29 30 31 32 33 34 35 36 37 38 39 40 41 42 43 44 45 46 47 48 49 50
000
ASUS45 KTFX 021710
RWRMT
MONTANA REGIONAL WEATHER ROUNDUP
NATIONAL WEATHER SERVICE GREAT FALLS MT
1100 AM MDT SUN AUG 02 2015

NOTE: "FAIR" INDICATES FEW OR NO CLOUDS BELOW 12000 FEET WITH NO
SIGNIFICANT WEATHER AND/OR OBSTRUCTIONS TO VISIBILITY.

MTZ001>007-043-021800-
WEST OF THE DIVIDE

CITY           SKY/WX    TMP DP  RH WIND       PRES   REMARKS
KALISPELL      SUNNY     80  46  30 N9        30.00S
MISSOULA       SUNNY     69  40  34 CALM      30.07F
BUTTE          SUNNY     73  36  25 CALM      30.18F
MULLAN PASS    PTSUNNY   73  28  18 VRB5      30.19S
DEER LODGE       N/A     73  43  33 CALM      30.16F
EUREKA           N/A     77  43  29 CALM      30.00F
HAMILTON         N/A     77  41  27 E1        30.05F
LIBBY            N/A     72  36  26 CALM      30.00F
PLAINS           N/A     73  37  26 CALM      30.01F
RONAN            N/A     77  48  35 CALM      30.07S
THOMPSON FALLS   N/A     73  34  24 E7        30.02F
$$

MTZ008-052>055-021800-
SOUTHWEST MONTANA

CITY           SKY/WX    TMP DP  RH WIND       PRES   REMARKS
BOZEMAN        SUNNY     78  41  26 VRB5      30.11F
DILLON         SUNNY     73  41  31 CALM      30.14F
W YELLOWSTONE  SUNNY     68  39  34 CALM      30.25F
THREE FORKS      N/A     76  56  49 NE2       30.09S
TWIN BRIDGES     N/A     72  39  30 S7        30.11F
$$

MTZ009-010-012-014-046-048-049-054-021800-
EAST SLOPES AND CENTRAL MONTANA

CITY           SKY/WX    TMP DP  RH WIND       PRES   REMARKS
CUT BANK       SUNNY     69  51  52 S8        30.10F
GREAT FALLS    SUNNY     71  53  52 W9        30.10S
MALMSTROM AFB  SUNNY     68  54  60 S5        30.10F
HELENA         SUNNY     76  49  38 N6        30.08F
CONRAD           N/A     71  58  63 NW2       30.12F
$$

MTZ011-013-016-021-045-047-050-051-021800-
NORTH CENTRAL MONTANA

CITY           SKY/WX    TMP DP  RH WIND       PRES   REMARKS
HAVRE          SUNNY     77  51  40 E14       30.06S
LEWISTOWN      SUNNY     73  50  44 E12       30.12S
CHINOOK          N/A     73  52  46 E5        30.06F
FORT BENTON      N/A     73  52  46 SE7       30.08F
$$

MTZ017>020-022>027-061-062-021800-
NORTHEAST MONTANA

CITY           SKY/WX    TMP DP  RH WIND       PRES   REMARKS
GLASGOW        SUNNY     76  49  38 NW7       30.04S
JORDAN           N/A     76  48  37 VRB7      30.05S
SIDNEY         SUNNY    N/A N/A N/A N9        30.01S
WOLF POINT     SUNNY     79  48  33 N12       30.03S
MALTA            N/A     77  55  46 E2        30.03S
PLENTYWOOD       N/A     70  52  52 N12       30.02F
POPLAR           N/A     73  50  43 N8        30.03S
SCOBEY           N/A     70  46  42 NW9       30.03S
$$

MTZ028>42-056>058-021800-
SOUTHCENTRAL AND SOUTHEAST MONTANA

CITY           SKY/WX    TMP DP  RH WIND       PRES   REMARKS
BAKER          SUNNY     78  48  34 NE15      30.04S
BILLINGS       MOSUNNY   76  50  40 N9G16     30.08R
LIVINGSTON     SUNNY     83  36  18 W8        30.09F
MILES CITY     SUNNY     78  50  37 NE14      30.02S
EKALAKA          N/A     78  46  32 NE10      30.03R
FORSYTH          N/A     77  48  36 NE13G18   30.02S
LAUREL           N/A     77  46  33 N7        30.06R
ROUNDUP          N/A     74  47  38 NE3       30.00S
$$

REGIONAL REPORTS...DAKOTAS

CITY           SKY/WX    TMP DP  RH WIND       PRES   REMARKS
WILLISTON      MOSUNNY   75  53  46 VRB7      30.01S
MINOT          MOSUNNY   72  51  47 N12       29.94R
DICKINSON      SUNNY     74  53  48 N14       30.00S
CROSBY         FAIR      72  54  53 N10G16    30.01S
BISMARCK       MOSUNNY   76  56  49 NW13G22   29.95S
GRAND FORKS    MOSUNNY   74  54  49 N13G23    29.81R
FARGO          MOSUNNY   76  58  53 N20G25    29.81R
BUFFALO SD       N/A     78  49  35 NE15      29.96R
RAPID CITY     MOSUNNY   77  53  43 N7        30.01S
$$

REGIONAL REPORTS...WYOMING/IDAHO/WASHINGTON

CITY           SKY/WX    TMP DP  RH WIND       PRES   REMARKS
GILLETTE       SUNNY     89  38  16 NE8       30.03S
SHERIDAN       SUNNY     87  41  19 N9        30.03R
BUFFALO WY     SUNNY     87  36  16 N10       30.09R
CODY           SUNNY     81  43  26 NE9       30.12S
YELLOWSTONE LA   N/A     62  44  51 E5        30.36S
IDAHO FALLS    SUNNY     80  43  26 NE7       30.09S
SALMON         SUNNY     72  43  35 NW3       30.07F
BOISE          SUNNY     89  37  16 S10       29.93S
SPOKANE        MOSUNNY   81  37  20 E6        29.94S
$$

REGIONAL REPORTS...ALBERTA

CITY           SKY/WX    TMP DP  RH WIND       PRES   REMARKS
EDMONTON       SUNNY     72  54  53 S2        30.02S
CALGARY        MOSUNNY   72  52  49 S17       30.06F
LETHBRIDGE     MOSUNNY   70  54  56 VRB6      30.08F
MEDICINE HAT   MOSUNNY   77  48  36 E5        30.06F
WATERTON GATE    N/A     70  52  52 SE1         N/A
CARDSTON         N/A     70  52  52 SE3         N/A
$$

REGIONAL REPORTS...SASKATCHEWAN

CITY           SKY/WX    TMP DP  RH WIND       PRES   REMARKS
SWIFT CURRENT  MOSUNNY   66  54  63 NW3       30.08S
REGINA         MOSUNNY   73  52  46 NW9G18    30.02S
SASKATOON      MOSUNNY   70  50  49 W8        30.04F
CYPRESS HILLS    N/A     68  48  49 E5          N/A
VAL MARIE        N/A     72  50  46 N8          N/A
ROCKGLEN         N/A     68  50  52 NW10G17     N/A
ASSINIBOIA       N/A     70  52  52 S5          N/A
$$



USA.gov is the U.S. government's official web portal to all federal, state and local government web resources and services.